When you browse on this site, cookies collect data to enhance your experience and personalize the content and advertising you see.
Visit our Privacy Policy to learn more. By continuing to use the site, you agree to this use of cookies and data.
EN

Hourly Weather Gogotl

Today, 21 September, Monday

Time Temperature Precipitation Wind Pressure Humidity
00:00 +9°C° 0 mm 1 mps 641 mmHg 78%
01:00 +8°C° 0 mm 1 mps 641 mmHg 79%
02:00 +8°C° 0 mm 1 mps 641 mmHg 80%
03:00 +7°C° 0 mm 0 mps 641 mmHg 82%
04:00 +7°C° 0 mm 0 mps 641 mmHg 82%
05:00 +7°C° 0 mm 0 mps 641 mmHg 82%
06:00 +8°C° 0 mm 1 mps 641 mmHg 82%
07:00 +10°C° 0 mm 1 mps 642 mmHg 75%
08:00 +12°C° 0 mm 1 mps 643 mmHg 69%
09:00 +14°C° 0 mm 2 mps 644 mmHg 61%
10:00 +15°C° 0 mm 2 mps 644 mmHg 58%
11:00 +16°C° 0 mm 2 mps 645 mmHg 56%
12:00 +17°C° 0 mm 2 mps 645 mmHg 53%
13:00 +17°C° 0 mm 2 mps 645 mmHg 54%
14:00 +18°C° 0 mm 2 mps 645 mmHg 55%
15:00 +18°C° 0 mm 2 mps 645 mmHg 56%
16:00 +16°C° 0 mm 2 mps 644 mmHg 63%
17:00 +14°C° 0 mm 2 mps 643 mmHg 71%
18:00 +12°C° 0 mm 1 mps 643 mmHg 78%
19:00 +12°C° 0 mm 1 mps 643 mmHg 79%
20:00 +11°C° 0 mm 1 mps 643 mmHg 81%
21:00 +11°C° 0 mm 1 mps 643 mmHg 82%
22:00 +11°C° 0 mm 1 mps 642 mmHg 82%
23:00 +11°C° 0 mm 1 mps 642 mmHg 81%

Tomorrow, 22 September, Tuesday

Time Temperature Precipitation Wind Pressure Humidity
00:00 +11°C° 0 mm 1 mps 642 mmHg 81%
01:00 +10°C° 0 mm 1 mps 642 mmHg 80%
02:00 +10°C° 0 mm 1 mps 642 mmHg 79%
03:00 +10°C° 0 mm 1 mps 642 mmHg 78%
04:00 +10°C° 0 mm 1 mps 642 mmHg 77%
05:00 +10°C° 0 mm 1 mps 642 mmHg 76%
06:00 +10°C° 0 mm 1 mps 642 mmHg 74%
07:00 +12°C° 0 mm 1 mps 643 mmHg 68%
08:00 +14°C° 0 mm 1 mps 644 mmHg 62%
09:00 +16°C° 0 mm 1 mps 644 mmHg 56%
10:00 +19°C° 0 mm 1 mps 645 mmHg 55%
11:00 +19°C° 0 mm 2 mps 645 mmHg 53%
12:00 +20°C° 0 mm 2 mps 645 mmHg 51%
13:00 +20°C° 0 mm 2 mps 645 mmHg 55%
14:00 +19°C° 0 mm 2 mps 645 mmHg 58%
15:00 +19°C° 0 mm 2 mps 645 mmHg 61%
16:00 +17°C° 0.1 mm 2 mps 644 mmHg 71%
17:00 +16°C° 0.1 mm 1 mps 644 mmHg 81%
18:00 +14°C° 0.1 mm 1 mps 643 mmHg 91%
19:00 +13°C° 0 mm 1 mps 643 mmHg 91%
20:00 +12°C° 0 mm 0 mps 643 mmHg 92%
21:00 +11°C° 0 mm 0 mps 644 mmHg 93%
22:00 +11°C° 0 mm 0 mps 643 mmHg 92%
23:00 +12°C° 0 mm 1 mps 643 mmHg 92%

Day after tomorrow, 23 September, Wednesday

Time Temperature Precipitation Wind Pressure Humidity
00:00 +12°C° 0 mm 1 mps 643 mmHg 91%
01:00 +12°C° 0 mm 1 mps 643 mmHg 90%
02:00 +11°C° 0 mm 1 mps 642 mmHg 89%
03:00 +11°C° 0 mm 1 mps 642 mmHg 88%
04:00 +11°C° 0 mm 1 mps 642 mmHg 87%
05:00 +11°C° 0 mm 1 mps 642 mmHg 85%
06:00 +11°C° 0 mm 1 mps 642 mmHg 84%
07:00 +13°C° 0 mm 1 mps 643 mmHg 76%
08:00 +15°C° 0 mm 1 mps 643 mmHg 69%
09:00 +18°C° 0 mm 1 mps 644 mmHg 62%
10:00 +19°C° 0 mm 1 mps 644 mmHg 60%
11:00 +19°C° 0 mm 2 mps 644 mmHg 58%
12:00 +21°C° 0 mm 2 mps 644 mmHg 56%
13:00 +20°C° 0.3 mm 2 mps 644 mmHg 58%
14:00 +20°C° 0.3 mm 2 mps 643 mmHg 61%
15:00 +20°C° 0.3 mm 2 mps 643 mmHg 64%
16:00 +18°C° 0.8 mm 2 mps 642 mmHg 73%
17:00 +16°C° 0.8 mm 1 mps 642 mmHg 81%
18:00 +15°C° 0.8 mm 1 mps 641 mmHg 89%
19:00 +14°C° 0.3 mm 1 mps 641 mmHg 89%
20:00 +14°C° 0.3 mm 1 mps 641 mmHg 89%
21:00 +13°C° 0.3 mm 1 mps 641 mmHg 89%
22:00 +13°C° 0 mm 1 mps 641 mmHg 88%
23:00 +13°C° 0 mm 1 mps 641 mmHg 88%

24 September, Thursday

Time Temperature Precipitation Wind Pressure Humidity
00:00 +12°C° 0 mm 1 mps 640 mmHg 87%
01:00 +12°C° 0 mm 1 mps 640 mmHg 86%
02:00 +12°C° 0 mm 1 mps 640 mmHg 85%
03:00 +12°C° 0 mm 1 mps 640 mmHg 85%
04:00 +12°C° 0 mm 1 mps 640 mmHg 84%
05:00 +12°C° 0 mm 1 mps 640 mmHg 83%
06:00 +11°C° 0 mm 1 mps 640 mmHg 82%
07:00 +14°C° 0 mm 1 mps 640 mmHg 75%
08:00 +16°C° 0 mm 1 mps 641 mmHg 67%
09:00 +19°C° 0 mm 1 mps 642 mmHg 60%
10:00 +20°C° 0 mm 1 mps 642 mmHg 57%
11:00 +20°C° 0 mm 2 mps 642 mmHg 55%
12:00 +21°C° 0 mm 2 mps 642 mmHg 52%
13:00 +21°C° 0.3 mm 2 mps 642 mmHg 54%
14:00 +21°C° 0.3 mm 2 mps 642 mmHg 56%
15:00 +21°C° 0.3 mm 2 mps 642 mmHg 57%
16:00 +19°C° 0.5 mm 2 mps 641 mmHg 66%
17:00 +18°C° 0.5 mm 1 mps 640 mmHg 75%
18:00 +16°C° 0.5 mm 1 mps 640 mmHg 84%
19:00 +15°C° 0.1 mm 1 mps 640 mmHg 84%
20:00 +15°C° 0.1 mm 1 mps 640 mmHg 84%
21:00 +14°C° 0.1 mm 1 mps 640 mmHg 84%
22:00 +14°C° 0 mm 1 mps 640 mmHg 83%
23:00 +14°C° 0 mm 1 mps 640 mmHg 83%

25 September, Friday

Time Temperature Precipitation Wind Pressure Humidity
00:00 +14°C° 0 mm 1 mps 639 mmHg 82%
01:00 +13°C° 0 mm 1 mps 639 mmHg 82%
02:00 +13°C° 0 mm 1 mps 639 mmHg 81%
03:00 +13°C° 0 mm 1 mps 639 mmHg 80%
04:00 +13°C° 0 mm 1 mps 639 mmHg 79%
05:00 +13°C° 0 mm 1 mps 639 mmHg 79%
06:00 +13°C° 0 mm 1 mps 639 mmHg 78%
07:00 +15°C° 0 mm 1 mps 639 mmHg 71%
08:00 +18°C° 0 mm 1 mps 640 mmHg 65%
09:00 +20°C° 0 mm 1 mps 641 mmHg 59%
10:00 +21°C° 0.2 mm 1 mps 641 mmHg 57%
11:00 +20°C° 0.2 mm 2 mps 641 mmHg 55%
12:00 +21°C° 0.2 mm 2 mps 641 mmHg 54%
13:00 +21°C° 0.4 mm 2 mps 641 mmHg 54%
14:00 +21°C° 0.4 mm 2 mps 641 mmHg 53%
15:00 +21°C° 0.4 mm 2 mps 640 mmHg 53%
16:00 +19°C° 0.3 mm 2 mps 640 mmHg 60%
17:00 +18°C° 0.3 mm 1 mps 639 mmHg 67%
18:00 +15°C° 0.3 mm 1 mps 639 mmHg 74%
19:00 +15°C° 0 mm 1 mps 639 mmHg 74%
20:00 +15°C° 0 mm 1 mps 639 mmHg 74%
21:00 +14°C° 0 mm 1 mps 639 mmHg 75%
22:00 +14°C° 0 mm 1 mps 639 mmHg 76%
23:00 +14°C° 0 mm 1 mps 638 mmHg 77%

26 September, Saturday

Time Temperature Precipitation Wind Pressure Humidity
00:00 +13°C° 0 mm 2 mps 638 mmHg 78%
01:00 +13°C° 0 mm 2 mps 638 mmHg 78%
02:00 +13°C° 0 mm 2 mps 638 mmHg 78%
03:00 +12°C° 0 mm 2 mps 638 mmHg 77%
04:00 +13°C° 0 mm 2 mps 638 mmHg 76%
05:00 +13°C° 0 mm 1 mps 638 mmHg 75%
06:00 +13°C° 0 mm 1 mps 638 mmHg 73%
07:00 +15°C° 0 mm 1 mps 638 mmHg 68%
08:00 +16°C° 0 mm 1 mps 639 mmHg 62%
09:00 +19°C° 0 mm 1 mps 640 mmHg 56%
10:00 +19°C° 0.2 mm 2 mps 640 mmHg 54%
11:00 +20°C° 0.2 mm 2 mps 640 mmHg 52%
12:00 +21°C° 0.2 mm 2 mps 640 mmHg 50%
13:00 +20°C° 0.6 mm 2 mps 640 mmHg 52%
14:00 +20°C° 0.6 mm 2 mps 640 mmHg 53%
15:00 +20°C° 0.6 mm 2 mps 640 mmHg 54%
16:00 +18°C° 0.4 mm 2 mps 640 mmHg 62%
17:00 +16°C° 0.4 mm 1 mps 639 mmHg 69%
18:00 +15°C° 0.4 mm 1 mps 639 mmHg 77%
19:00 +14°C° 0.1 mm 1 mps 639 mmHg 79%
20:00 +14°C° 0.1 mm 1 mps 639 mmHg 80%
21:00 +13°C° 0.1 mm 1 mps 640 mmHg 82%
22:00 +13°C° 0 mm 1 mps 639 mmHg 81%
23:00 +12°C° 0 mm 1 mps 639 mmHg 80%
Show more